Zurück zum Katalog

COSMOS 1636

AktivMilitärLEO
NORAD 15618·PAYLOAD·🇷🇺 Russia

Gestartet Mar 21, 1985 von Plesetsk Cosmodrome

Loading…

Nächste Überflüge (nächste 24 Stunden)

TLE

AktuellSource: Space-Track

Epoche: Sep 14, 2026, 10:06 UTC

1 15618U 85023B   26257.42122843 -.00000027  00000-0 -81812-4 0  9992
2 15618  74.0536  62.0059 0013160 286.2633  98.6751 12.45359144885983

Verfolge COSMOS 1636 in Echtzeit mit AllMySat

Download on the App Store